2016-07-31 00:02:26 r, 18.52m,0000000003Hz,0000132547c,0000000.288s, 036.4C,00002195
2016-07-31 00:12:26 r, 18.54m,0000000003Hz,0000134453c,0000000.292s, 036.4C,00002195
2016-07-31 00:22:26 r, 18.51m,0000000004Hz,0000131589c,0000000.286s, 036.4C,00002195
2016-07-31 00:32:26 r, 18.12m,0000000005Hz,0000091245c,0000000.198s, 036.4C,00002195
2016-07-31 00:42:28 r, 16.29m,0000000027Hz,0000017113c,0000000.037s, 036.4C,00002195
2016-07-31 00:52:26 r, 16.69m,0000000019Hz,0000024777c,0000000.054s, 036.7C,00002195
2016-07-31 01:02:26 r, 16.55m,0000000021Hz,0000021766c,0000000.047s, 036.7C,00002195
2016-07-31 01:12:26 r, 16.96m,0000000015Hz,0000031842c,0000000.069s, 036.7C,00002195
2016-07-31 01:22:26 r, 17.01m,0000000014Hz,0000033172c,0000000.072s, 036.7C,00002195
2016-07-31 01:32:26 r, 17.09m,0000000013Hz,0000035447c,0000000.077s, 036.4C,00002195
2016-07-31 01:42:26 r, 16.91m,0000000015Hz,0000030315c,0000000.066s, 036.0C,00002195
2016-07-31 01:52:26 r, 16.18m,0000000030Hz,0000015487c,0000000.034s, 036.0C,00002195
2016-07-31 02:02:26 r, 17.68m,0000000008Hz,0000061296c,0000000.133s, 036.0C,00002195
2016-07-31 02:12:26 r, 16.42m,0000000025Hz,0000019227c,0000000.042s, 035.7C,00002195
2016-07-31 02:22:28 r, 17.96m,0000000006Hz,0000079655c,0000000.173s, 036.0C,00002195
2016-07-31 02:32:26 r, 17.76m,0000000007Hz,0000066442c,0000000.144s, 036.0C,00002195
2016-07-31 02:42:26 r, 18.24m,0000000005Hz,0000102868c,0000000.223s, 035.7C,00002195
2016-07-31 02:52:26 r, 16.93m,0000000014Hz,0000030898c,0000000.067s, 035.7C,00002195
2016-07-31 03:02:26 r, 16.11m,0000000032Hz,0000014446c,0000000.031s, 036.0C,00002195
2016-07-31 03:12:26 r, 15.84m,0000000041Hz,0000011296c,0000000.025s, 036.0C,00002195
2016-07-31 03:22:26 r, 16.54m,0000000022Hz,0000021533c,0000000.047s, 036.0C,00002195
2016-07-31 03:32:26 r, 17.67m,0000000008Hz,0000060970c,0000000.132s, 036.0C,00002195
2016-07-31 03:42:27 r, 17.01m,0000000013Hz,0000033227c,0000000.072s, 036.0C,00002195
2016-07-31 03:52:27 r, 18.55m,0000000003Hz,0000138020c,0000000.300s, 036.0C,00002195
2016-07-31 04:02:26 r, 18.55m,0000000003Hz,0000137302c,0000000.298s, 035.7C,00002195
2016-07-31 04:12:26 r, 18.44m,0000000004Hz,0000123835c,0000000.269s, 035.4C,00002195
2016-07-31 04:22:26 r, 17.36m,0000000010Hz,0000045746c,0000000.099s, 035.4C,00002195
2016-07-31 04:32:26 r, 17.27m,0000000011Hz,0000042200c,0000000.092s, 035.4C,00002195
2016-07-31 04:42:26 r, 17.68m,0000000008Hz,0000061450c,0000000.133s, 035.4C,00002195
2016-07-31 04:52:28 r, 16.79m,0000000017Hz,0000027088c,0000000.059s, 035.4C,00002195
2016-07-31 05:02:26 r, 15.96m,0000000037Hz,0000012612c,0000000.027s, 035.4C,00002195
2016-07-31 05:12:26 r, 14.41m,0000000153Hz,0000000000c,0000000.000s, 035.1C,00002195
2016-07-31 05:22:27 r, 12.69m,0000000746Hz,0000000000c,0000000.000s, 035.1C,00002195
2016-07-31 05:32:26 r, 10.87m,0000004000Hz,0000000000c,0000000.000s, 034.8C,00002195
2016-07-31 05:42:26 r, 09.43m,0000015091Hz,0000000000c,0000000.000s, 034.4C,00002195
2016-07-31 05:52:27 r, 08.07m,0000052904Hz,0000000000c,0000000.000s, 034.4C,00002195
2016-07-31 06:02:26 r, 07.21m,0000115786Hz,0000000000c,0000000.000s, 034.4C,00002195
2016-07-31 06:12:26 r, 06.72m,0000181522Hz,0000000000c,0000000.000s, 034.1C,00002195
2016-07-31 06:22:26 r, 06.26m,0000280026Hz,0000000000c,0000000.000s, 034.1C,00002195
2016-07-31 06:32:26 r, 05.92m,0000380296Hz,0000000000c,0000000.000s, 034.1C,00002195
2016-07-31 06:42:26 r, 00.00m,0000478355Hz,0000000000c,0000000.000s, 034.1C,00002195
2016-07-31 06:52:26 r, 00.00m,0000564558Hz,0000000000c,0000000.000s, 033.8C,00002195
2016-07-31 07:02:26 r, 00.00m,0000564501Hz,0000000000c,0000000.000s, 034.1C,00002195
2016-07-31 07:12:26 r, 00.00m,0000564494Hz,0000000000c,0000000.000s, 034.1C,00002195
2016-07-31 07:22:28 r, 00.00m,0000564496Hz,0000000000c,0000000.000s, 034.1C,00002195
2016-07-31 07:32:26 r, 00.00m,0000564649Hz,0000000000c,0000000.000s, 034.4C,00002195
2016-07-31 07:42:26 r, 00.00m,0000564633Hz,0000000000c,0000000.000s, 034.8C,00002195
2016-07-31 07:52:27 r, 00.00m,0000564673Hz,0000000000c,0000000.000s, 034.8C,00002195
2016-07-31 08:02:26 r, 00.00m,0000564709Hz,0000000000c,0000000.000s, 035.4C,00002195
2016-07-31 08:12:27 r, 00.00m,0000564668Hz,0000000000c,0000000.000s, 035.4C,00002195
2016-07-31 08:22:26 r, 00.00m,0000564678Hz,0000000000c,0000000.000s, 035.7C,00002195
2016-07-31 08:32:26 r, 00.00m,0000564699Hz,0000000000c,0000000.000s, 036.0C,00002195
2016-07-31 08:42:26 r, 00.00m,0000564808Hz,0000000000c,0000000.000s, 036.7C,00002195
2016-07-31 08:52:26 r, 00.00m,0000564882Hz,0000000000c,0000000.000s, 037.7C,00002195
2016-07-31 09:02:26 r, 00.00m,0000564862Hz,0000000000c,0000000.000s, 038.0C,00002195
2016-07-31 09:12:26 r, 00.00m,0000564886Hz,0000000000c,0000000.000s, 038.3C,00002195
2016-07-31 09:22:26 r, 00.00m,0000565210Hz,0000000000c,0000000.000s, 040.6C,00002195
2016-07-31 09:32:26 r, 00.00m,0000565445Hz,0000000000c,0000000.000s, 042.5C,00002195
2016-07-31 09:42:27 r, 00.00m,0000565465Hz,0000000000c,0000000.000s, 044.1C,00002195
2016-07-31 09:52:27 r, 00.00m,0000565688Hz,0000000000c,0000000.000s, 045.4C,00002195
2016-07-31 10:02:26 r, 00.00m,0000565730Hz,0000000000c,0000000.000s, 046.4C,00002195
2016-07-31 10:12:26 r, 00.00m,0000565776Hz,0000000000c,0000000.000s, 047.3C,00002195
2016-07-31 10:22:27 r, 00.00m,0000565786Hz,0000000000c,0000000.000s, 048.3C,00002195
2016-07-31 10:32:26 r, 00.00m,0000565860Hz,0000000000c,0000000.000s, 048.9C,00002195
2016-07-31 10:42:26 r, 00.00m,0000565882Hz,0000000000c,0000000.000s, 049.9C,00002195
2016-07-31 10:52:29 r, 00.00m,0000565948Hz,0000000000c,0000000.000s, 050.9C,00002195
2016-07-31 11:02:26 r, 00.00m,0000565847Hz,0000000000c,0000000.000s, 050.9C,00002195
2016-07-31 11:12:27 r, 00.00m,0000566004Hz,0000000000c,0000000.000s, 051.5C,00002195
2016-07-31 11:22:27 r, 00.00m,0000566042Hz,0000000000c,0000000.000s, 051.5C,00002195
2016-07-31 11:32:26 r, 00.00m,0000566036Hz,0000000000c,0000000.000s, 052.2C,00002195
2016-07-31 11:42:26 r, 00.00m,0000566007Hz,0000000000c,0000000.000s, 052.8C,00002195
2016-07-31 11:52:26 r, 00.00m,0000566056Hz,0000000000c,0000000.000s, 053.5C,00002195
2016-07-31 12:02:26 r, 00.00m,0000566079Hz,0000000000c,0000000.000s, 053.8C,00002195
2016-07-31 12:12:26 r, 00.00m,0000566097Hz,0000000000c,0000000.000s, 054.4C,00002195
2016-07-31 12:22:26 r, 00.00m,0000566082Hz,0000000000c,0000000.000s, 055.1C,00002195
2016-07-31 12:32:26 r, 00.00m,0000566105Hz,0000000000c,0000000.000s, 055.1C,00002195
2016-07-31 12:42:26 r, 00.00m,0000566171Hz,0000000000c,0000000.000s, 055.4C,00002195
2016-07-31 12:52:26 r, 00.00m,0000566033Hz,0000000000c,0000000.000s, 054.4C,00002195
2016-07-31 13:02:26 r, 00.00m,0000566206Hz,0000000000c,0000000.000s, 055.7C,00002195
2016-07-31 13:12:26 r, 00.00m,0000566205Hz,0000000000c,0000000.000s, 056.4C,00002195
2016-07-31 13:22:26 r, 00.00m,0000566110Hz,0000000000c,0000000.000s, 056.4C,00002195
2016-07-31 13:32:26 r, 00.00m,0000566086Hz,0000000000c,0000000.000s, 057.0C,00002195
2016-07-31 13:42:26 r, 00.00m,0000566135Hz,0000000000c,0000000.000s, 057.6C,00002195
2016-07-31 13:52:26 r, 00.00m,0000566141Hz,0000000000c,0000000.000s, 058.0C,00002195
2016-07-31 14:02:26 r, 00.00m,0000566166Hz,0000000000c,0000000.000s, 058.3C,00002195
2016-07-31 14:12:26 r, 00.00m,0000566148Hz,0000000000c,0000000.000s, 058.3C,00002195
2016-07-31 14:22:26 r, 00.00m,0000566209Hz,0000000000c,0000000.000s, 058.6C,00002195
2016-07-31 14:32:26 r, 00.00m,0000566216Hz,0000000000c,0000000.000s, 058.9C,00002195
2016-07-31 14:42:26 r, 00.00m,0000566060Hz,0000000000c,0000000.000s, 057.0C,00002195
2016-07-31 14:52:26 r, 00.00m,0000565898Hz,0000000000c,0000000.000s, 055.1C,00002195
2016-07-31 15:02:26 r, 00.00m,0000566141Hz,0000000000c,0000000.000s, 057.6C,00002195
2016-07-31 15:12:26 r, 00.00m,0000566087Hz,0000000000c,0000000.000s, 058.6C,00002195
2016-07-31 15:22:29 r, 00.00m,0000566073Hz,0000000000c,0000000.000s, 058.3C,00002195
2016-07-31 15:32:26 r, 00.00m,0000565995Hz,0000000000c,0000000.000s, 058.0C,00002195
2016-07-31 15:42:26 r, 00.00m,0000566092Hz,0000000000c,0000000.000s, 057.6C,00002195
2016-07-31 15:52:26 r, 00.00m,0000565993Hz,0000000000c,0000000.000s, 056.7C,00002195
2016-07-31 16:02:26 r, 00.00m,0000566008Hz,0000000000c,0000000.000s, 056.7C,00002195
2016-07-31 16:12:26 r, 00.00m,0000565997Hz,0000000000c,0000000.000s, 056.0C,00002195
2016-07-31 16:22:27 r, 00.00m,0000565842Hz,0000000000c,0000000.000s, 054.1C,00002195
2016-07-31 16:32:27 r, 00.00m,0000565669Hz,0000000000c,0000000.000s, 052.2C,00002195
2016-07-31 16:42:26 r, 00.00m,0000565565Hz,0000000000c,0000000.000s, 050.6C,00002195
2016-07-31 16:52:26 r, 00.00m,0000565352Hz,0000000000c,0000000.000s, 048.6C,00002195
2016-07-31 17:02:26 r, 00.00m,0000565320Hz,0000000000c,0000000.000s, 047.3C,00002195
2016-07-31 17:12:28 r, 00.00m,0000565279Hz,0000000000c,0000000.000s, 046.7C,00002195
2016-07-31 17:22:26 r, 00.00m,0000565277Hz,0000000000c,0000000.000s, 046.4C,00002195
2016-07-31 17:32:27 r, 00.00m,0000565330Hz,0000000000c,0000000.000s, 047.0C,00002195
2016-07-31 17:42:26 r, 00.00m,0000565513Hz,0000000000c,0000000.000s, 048.6C,00002195
2016-07-31 17:52:26 r, 00.00m,0000565383Hz,0000000000c,0000000.000s, 048.6C,00002195
2016-07-31 18:02:26 r, 00.00m,0000565362Hz,0000000000c,0000000.000s, 047.7C,00002195
2016-07-31 18:12:27 r, 00.00m,0000565349Hz,0000000000c,0000000.000s, 047.3C,00002195
2016-07-31 18:22:26 r, 00.00m,0000565570Hz,0000000000c,0000000.000s, 048.6C,00002195
2016-07-31 18:32:26 r, 00.00m,0000565536Hz,0000000000c,0000000.000s, 049.3C,00002195
2016-07-31 18:42:26 r, 00.00m,0000565517Hz,0000000000c,0000000.000s, 049.3C,00002195
2016-07-31 18:52:26 r, 00.00m,0000565449Hz,0000000000c,0000000.000s, 048.9C,00002195
2016-07-31 19:02:27 r, 00.00m,0000565474Hz,0000000000c,0000000.000s, 048.9C,00002195
2016-07-31 19:12:26 r, 00.00m,0000565418Hz,0000000000c,0000000.000s, 048.3C,00002195
2016-07-31 19:22:26 r, 00.00m,0000565316Hz,0000000000c,0000000.000s, 046.7C,00002195
2016-07-31 19:32:27 r, 00.00m,0000565300Hz,0000000000c,0000000.000s, 045.7C,00002195
2016-07-31 19:42:26 r, 00.00m,0000565318Hz,0000000000c,0000000.000s, 045.7C,00002195
2016-07-31 19:52:26 r, 00.00m,0000565299Hz,0000000000c,0000000.000s, 045.7C,00002195
2016-07-31 20:02:26 r, 00.00m,0000565213Hz,0000000000c,0000000.000s, 045.4C,00002195
2016-07-31 20:12:26 r, 00.00m,0000565135Hz,0000000000c,0000000.000s, 044.4C,00002195
2016-07-31 20:22:26 r, 00.00m,0000552359Hz,0000000000c,0000000.000s, 043.8C,00002195
2016-07-31 20:32:29 r, 00.00m,0000436565Hz,0000000000c,0000000.000s, 042.8C,00002195
2016-07-31 20:42:26 r, 06.23m,0000288643Hz,0000000000c,0000000.000s, 041.9C,00002195
2016-07-31 20:52:26 r, 06.82m,0000167867Hz,0000000000c,0000000.000s, 041.5C,00002195
2016-07-31 21:02:27 r, 07.42m,0000095608Hz,0000000000c,0000000.000s, 041.2C,00002195
2016-07-31 21:12:26 r, 08.14m,0000049482Hz,0000000000c,0000000.000s, 040.6C,00002195
2016-07-31 21:22:26 r, 09.23m,0000018184Hz,0000000000c,0000000.000s, 040.2C,00002195
2016-07-31 21:32:26 r, 10.64m,0000004949Hz,0000000000c,0000000.000s, 039.9C,00002195
2016-07-31 21:42:26 r, 12.23m,0000001148Hz,0000000000c,0000000.000s, 039.6C,00002195
2016-07-31 21:52:27 r, 13.91m,0000000242Hz,0000000000c,0000000.000s, 039.3C,00002195
2016-07-31 22:02:26 r, 15.53m,0000000054Hz,0000008517c,0000000.018s, 039.0C,00002195
2016-07-31 22:12:26 r, 16.62m,0000000020Hz,0000023069c,0000000.050s, 039.0C,00002195
2016-07-31 22:22:26 r, 17.22m,0000000011Hz,0000040289c,0000000.087s, 038.6C,00002195
2016-07-31 22:32:27 r, 17.93m,0000000006Hz,0000077753c,0000000.169s, 038.3C,00002195
2016-07-31 22:42:26 r, 17.24m,0000000011Hz,0000040975c,0000000.089s, 038.3C,00002195
2016-07-31 22:52:27 r, 17.55m,0000000009Hz,0000054705c,0000000.119s, 038.3C,00002195
2016-07-31 23:02:29 r, 17.68m,0000000008Hz,0000061534c,0000000.134s, 038.3C,00002195
2016-07-31 23:12:26 r, 17.29m,0000000011Hz,0000042997c,0000000.093s, 038.0C,00002195
2016-07-31 23:22:26 r, 16.68m,0000000019Hz,0000024332c,0000000.053s, 038.0C,00002195
2016-07-31 23:32:27 r, 17.85m,0000000006Hz,0000071849c,0000000.156s, 038.0C,00002195
2016-07-31 23:42:26 r, 17.80m,0000000007Hz,0000068987c,0000000.150s, 038.0C,00002195
2016-07-31 23:52:27 r, 17.39m,0000000010Hz,0000046994c,0000000.102s, 038.0C,00002195
